Location: Penzberg
(47.7615°N, 11.3159°E)
Time: 06:48:23
(UTC+01:00)

N. Korean satellite - Visible Passes

Search period start: 25 November 2017 00:00
Search period end: 05 December 2017 00:00
Orbit: 460 x 514 km, 97.2° (Epoch: 24 November)

Date Brightness Start Highest point End Pass type
(mag) Time Alt. Az. Time Alt. Az. Time Alt. Az.
25 Nov 8.3 06:41:38 10° NNE 06:45:12 39° E 06:48:45 10° SSE visible
25 Nov 7.6 17:21:32 10° SE 17:24:30 25° ENE 17:27:32 10° N visible
25 Nov 8.9 18:55:00 10° SSW 18:57:59 25° W 19:01:01 10° NW visible
26 Nov 9.5 06:18:35 10° NE 06:21:35 22° E 06:24:33 10° SE visible
26 Nov 8.2 16:59:06 10° E 17:01:13 15° ENE 17:03:21 10° NNE visible
26 Nov 7.6 18:30:54 10° S 18:34:21 46° W 18:37:53 10° NNW visible
27 Nov 10.1 05:56:11 10° ENE 05:57:52 13° E 05:59:33 10° ESE visible
27 Nov 6.5 18:07:15 10° SSE 18:10:48 88° E 18:14:29 10° NNW visible
28 Nov 6.8 17:43:55 10° SE 17:47:21 45° ENE 17:50:52 10° N visible
28 Nov 9.8 19:19:09 10° WSW 19:21:09 14° W 19:23:11 10° NW visible
29 Nov 8.3 06:41:08 10° NNE 06:44:42 39° E 06:48:14 10° SSE visible
29 Nov 7.6 17:20:58 10° SE 17:23:58 25° ENE 17:27:02 10° N visible
29 Nov 8.9 18:54:24 10° SSW 18:57:26 25° W 19:00:32 10° NW visible
30 Nov 9.5 06:18:04 10° NE 06:21:03 22° E 06:24:02 10° SE visible
30 Nov 8.2 16:58:30 10° E 17:00:40 15° ENE 17:02:51 10° NNE visible
30 Nov 7.6 18:30:19 10° S 18:33:48 47° W 18:37:22 10° NNW visible
01 Dec 10.1 05:55:39 10° ENE 05:57:20 12° E 05:58:59 10° ESE visible
01 Dec 6.5 18:06:38 10° SSE 18:10:15 88° ENE 18:13:57 10° NNW visible
02 Dec 7.0 07:03:55 10° NNE 07:07:42 75° E 07:11:27 10° S visible
02 Dec 6.8 17:43:18 10° SE 17:46:46 45° ENE 17:50:19 10° N visible
02 Dec 9.8 19:18:29 10° SW 19:20:33 15° W 19:22:40 10° NW visible
03 Dec 8.3 06:40:34 10° NNE 06:44:08 39° E 06:47:39 10° SSE visible
03 Dec 7.6 17:20:20 10° SE 17:23:22 26° ENE 17:26:28 10° N visible
03 Dec 8.9 18:53:45 10° SSW 18:56:50 26° W 18:59:58 10° NW visible
04 Dec 9.5 06:17:29 10° NE 06:20:28 22° E 06:23:24 10° SE visible
04 Dec 8.2 16:57:52 10° E 17:00:03 15° ENE 17:02:16 10° NNE visible
04 Dec 7.6 18:29:39 10° S 18:33:11 48° W 18:36:48 10° NNW visible
